Погода в Веваке

Папуа-Новая Гвинея     3°34′04″S   143°37′45″E
темп.,
°C
ветер,
м/с
пор.,
м/с
влажн.,
%
обл.,
%
осадки,
мм/ч
давл.,
гПа
погр.,
м
10 августа, ср
ср1001:00+28в787782 8.6 1010754
04:00+28в7877100 18.4 1009599
07:00+27ююв567796 6.6 1010468
10:00+27ююв337747 6.8 1011419
13:00+27всв347633 0.4 1009365
16:00+28св347122 0.4 1007570
19:00+28св447359 0.0 1009686
22:00+28св457898 1.1 1011479
11 августа, чт
чт1101:00+27всв3478100 2.3 1010472
04:00+27в4581100 6.9 1009374
07:00+27в458096 4.9 1011446
10:00+27вюв557982 7.8 1011566
13:00+28в34718 0.3 1009514
16:00+28всв3370100 0.3 1007424
19:00+28св457397 0.1 1008527
22:00+28св457765 2.4 1011437
12 августа, пт
пт1201:00+28ссв337397 0.9 1010476
04:00+28всв117095 1.3 1009577
07:00+27юв227995 1.3 1010172
10:00+27юв237530 5.3 1011309
13:00+27в558195 3.6 1009399
16:00+27всв5584100 6.3 1008489
19:00+27в348088 0.3 1010496
22:00+27юв557896 0.8 1012591
13 августа, сб
сб1301:00+26ю5683100 1.4 1010430
04:00+25ю4582100 1.4 1010374
07:00+25ю338176 0.0 1011328
10:00+26ююв448067 0.1 1012360
13:00+26ю5582100 0.1 1011354
16:00+26ююв2277100 0.1 1009375
19:00+26ююв1175100 0.0 1010392
22:00+27ю1176100 0.1 1012424
14 августа, вс
вс1401:00+26ююз2278100 0.0 1010334
04:00+26ююз3380100 0.3 1010277
07:00+26ююз338170 0.6 1011280
10:00+27ю117449 0.6 1012369
13:00+27всв227412 0.2 1010270
16:00+28ссв2270100 0.6 1008448
19:00+28с4472100 0.1 1009586
22:00+28с4573100 0.1 1011755